[[{"header":{"parameterUnit":"m.s-1","parameterCategory":1,"la1":30.2991,"la2":30.254,"lo1":-89.0895,"lo2":-89.0444,"dy":0.0017,"dx":0.0017,"nx":28,"ny":28,"refTime":"2024-03-05T09:00:00:Z","depth":0,"parameterNumber":2,"parameterNumberName":"U-component_of_WINDS"},"data":[0,0,0,0,0,0,0,0,0,0,0,0,0,0,0,0,0,0,0,0,0,0,0,0,0,0,0,0,0,0,0,0,0,0,0,0,0,0,0,0,0,0,0,0,0,0,0,0,0,0,0,0,0,0,0,0,0,0,0.4297,0.4299,0,0.4421,0.4423,0.4424,0.4482,0.4482,0.4482,0.4482,0.4612,0.4615,0.4619,0,0,0,0,0,0,0,0,0,0,0,0,0,0.4114,0.4117,0.4297,0.4299,0.43,0.4421,0.4423,0.4425,0.4482,0.4482,0.4482,0.4482,0.4611,0.4615,0.4619,0,0,0,0,0,0,0,0,0,0,0,0,0,0.4211,0.4118,0.4297,0.4344,0.4349,0.4421,0.4423,0.4425,0.4482,0.4482,0.4482,0.4482,0.4609,0.4614,0.462,0.4655,0,0,0.4636,0.4638,0,0,0,0,0,0,0,0,0.4206,0.4218,0.4335,0.434,0.4347,0.4436,0.4406,0.4502,0.4482,0.4432,0.4482,0.4482,0.4554,0.4564,0.4587,0.4662,0.4667,0.4636,0.464,0.4642,0.4643,0,0,0,0,0,0,0,0.4199,0.4213,0.4346,0.4337,0.4344,0.436,0.4373,0.4425,0.4492,0.4436,0.4441,0.4454,0.4557,0.4582,0.4591,0.4669,0.4636,0.4641,0.4644,0.4646,0.4781,0.4782,0,0,0,0,0,0,0.4184,0.4207,0.4343,0.435,0.4274,0.4363,0.4378,0.4408,0.4492,0.4504,0.4454,0.4457,0.4573,0.4584,0.4596,0.4644,0.4642,0.4647,0.465,0.4781,0.4781,0.4782,0,0,0,0,0,0,0.418,0.4196,0.4338,0.428,0.4299,0.4366,0.4399,0.441,0.4435,0.4505,0.4518,0.4467,0.4573,0.4588,0.464,0.465,0.4649,0.4654,0.478,0.4781,0.4782,0.4741,0,0,0,0,0,0,0.4174,0.4194,0.4207,0.428,0.4302,0.4379,0.4399,0.4413,0.4444,0.4448,0.4521,0.4533,0.4574,0.4632,0.4646,0.4657,0.4658,0.478,0.4781,0.4781,0.4742,0.474,0.4739,0,0,0,0,0,0.4168,0.4191,0.4207,0.4223,0.432,0.4379,0.4392,0.4438,0.4444,0.4459,0.4504,0.4531,0.4646,0.4637,0.4653,0.4666,0.478,0.478,0.4781,0.4743,0.4741,0.4739,0,0,0,0,0,0,0.4118,0.4201,0.422,0.4268,0.4316,0.4389,0.4409,0.4435,0.4483,0.4485,0.4541,0.4557,0.4605,0.4641,0.4629,0.4706,0.4716,0.472,0.4681,0.4679,0.4678,0.4669,0.4663,0,0,0,0,0,0.4113,0.4153,0.4224,0.4259,0.4282,0.4341,0.4369,0.44,0.4453,0.4474,0.4523,0.4574,0.4622,0.4653,0.4701,0.4747,0.4765,0.4764,0.4763,0.4761,0.4764,0.4794,0.4795,0.4785,0.4785,0.4785,0,0,0.4102,0.4152,0.4174,0.425,0.4291,0.4333,0.4358,0.4401,0.4433,0.4481,0.4533,0.4571,0.4632,0.4682,0.4707,0.4713,0.4771,0.4762,0.476,0.4765,0.4795,0.4796,0.4796,0.4785,0.4785,0.4785,0,0,0.4104,0.4145,0.418,0.4221,0.4282,0.4322,0.433,0.44,0.4426,0.448,0.4517,0.4557,0.4638,0.468,0.4712,0.4732,0.4758,0.4746,0.4738,0.4766,0.4767,0.4768,0.4776,0.4778,0.4748,0.4748,0.4748,0,0.4083,0.4147,0.4194,0.4236,0.4269,0.4313,0.435,0.4387,0.4462,0.4484,0.449,0.4594,0.4638,0.47,0.4704,0.4728,0.4741,0.4738,0.4762,0.4764,0.4766,0.4774,0.4777,0.4747,0.4747,0.4747,0.4747,0,0.4119,0.4162,0.4183,0.4253,0.4289,0.4327,0.4382,0.4413,0.4441,0.448,0.4535,0.459,0.465,0.4667,0.4695,0.4733,0.4736,0.4751,0.4762,0.4764,0.4773,0.4777,0.4744,0.4745,0.4745,0.4746,0,0,0.4093,0.419,0.4197,0.423,0.4302,0.4337,0.4379,0.4437,0.4463,0.4513,0.455,0.4618,0.4634,0.467,0.4704,0.4728,0.4742,0.4742,0.4744,0.4741,0.4789,0.4778,0.4781,0.476,0.4761,0.4762,0.4785,0,0.4106,0.4181,0.4226,0.4283,0.4325,0.4368,0.4405,0.4454,0.4492,0.4534,0.4577,0.4624,0.464,0.4663,0.4689,0.4735,0.4753,0.4734,0.4797,0.4799,0.4781,0.4786,0.4773,0.4793,0.4789,0.4789,0.479,0,0.4131,0.418,0.4241,0.431,0.4329,0.4361,0.4419,0.4458,0.4515,0.4541,0.4582,0.4617,0.4664,0.467,0.4737,0.4723,0.4752,0.4778,0.478,0.4789,0.4795,0.4796,0.48,0.4803,0.4796,0.4795,0.4795,0,0.4107,0.4188,0.4236,0.4263,0.4344,0.4366,0.4401,0.4458,0.449,0.4542,0.4564,0.462,0.4651,0.4695,0.4744,0.4744,0.4806,0.4817,0.4831,0.483,0.4843,0.4842,0.4853,0.4859,0.4859,0.4859,0.4859,0,0.4117,0.4154,0.4227,0.4256,0.4299,0.4351,0.4392,0.4431,0.4481,0.452,0.4561,0.4597,0.4659,0.4703,0.4742,0.4793,0.4806,0.483,0.484,0.4827,0.4824,0.4847,0.4848,0.486,0.486,0.4859,0.4859,0,0.4098,0.4149,0.4204,0.4276,0.4296,0.4324,0.4387,0.4418,0.4458,0.4507,0.4521,0.4585,0.4639,0.4692,0.4765,0.4792,0.4842,0.4855,0.4823,0.4828,0.4841,0.4839,0.4868,0.4876,0.4875,0.4875,0.4875,0,0.4102,0.4131,0.4207,0.4235,0.4269,0.4315,0.4349,0.4402,0.4435,0.4504,0.4527,0.4584,0.4633,0.4717,0.4771,0.4828,0.4843,0.4849,0.4852,0.4838,0.4845,0.4843,0.4847,0.4848,0.4848,0.4848,0.4847,0,0.4104,0.4128,0.4174,0.423,0.4269,0.4316,0.4364,0.4386,0.4448,0.4485,0.454,0.4578,0.4652,0.4709,0.4772,0.481,0.484,0.4846,0.4853,0.484,0.4821,0.4833,0.482,0.4845,0.4846,0.4846,0.4846,0.4846,0.4097,0.4126,0.4184,0.4235,0.4277,0.4321,0.4355,0.4399,0.4446,0.4511,0.4539,0.4596,0.4655,0.4742,0.4779,0.4826,0.4833,0.4842,0.4845,0.4847,0.4845,0.4812,0.4837,0.4837,0.4837,0.4838,0.4838,0,0.4102,0.4142,0.4189,0.4255,0.4296,0.4319,0.4374,0.4407,0.4456,0.4508,0.4555,0.462,0.4676,0.4734,0.4794,0.4819,0.4835,0.4834,0.4833,0.4842,0.4834,0.4823,0.482,0.482,0.482,0.482,0.482,0.482,0.411,0.416,0.419,0.4262,0.4302,0.4357,0.4387,0.4429,0.4471,0.4541,0.4588,0.4625,0.468,0.4744,0.4797,0.4813,0.4834,0.4829,0.4849,0.4841,0.4842,0.4843,0.4833,0.4833,0.4833,0.4853,0.4854,0.4854]},{"header":{"parameterUnit":"m.s-1","parameterCategory":1,"la1":30.2991,"la2":30.254,"lo1":-89.0895,"lo2":-89.0444,"dy":0.0017,"dx":0.0017,"nx":28,"ny":28,"refTime":"2024-03-05T09:00:00:Z","depth":0,"parameterNumber":3,"parameterNumberName":"V-component_of_WINDS"},"data":[0,0,0,0,0,0,0,0,0,0,0,0,0,0,0,0,0,0,0,0,0,0,0,0,0,0,0,0,0,0,0,0,0,0,0,0,0,0,0,0,0,0,0,0,0,0,0,0,0,0,0,0,0,0,0,0,0,0,0.1429,0.1429,0,0.1451,0.1451,0.1451,0.1451,0.1451,0.1451,0.145,0.1474,0.1475,0.1476,0,0,0,0,0,0,0,0,0,0,0,0,0,0.1388,0.1389,0.1429,0.1429,0.1429,0.1451,0.1451,0.1451,0.1451,0.1451,0.145,0.145,0.1474,0.1475,0.1476,0,0,0,0,0,0,0,0,0,0,0,0,0,0.1407,0.1389,0.1429,0.1432,0.1432,0.1451,0.1451,0.1451,0.1451,0.1451,0.145,0.145,0.1473,0.1475,0.1476,0.1493,0,0,0.148,0.1481,0,0,0,0,0,0,0,0,0.1406,0.1409,0.1431,0.1432,0.1432,0.1448,0.1445,0.1466,0.1451,0.1444,0.145,0.145,0.1466,0.1468,0.1473,0.1494,0.1495,0.148,0.1481,0.1482,0.1482,0,0,0,0,0,0,0,0.1405,0.1408,0.1438,0.1431,0.1432,0.1433,0.1435,0.1449,0.1457,0.1445,0.1445,0.1447,0.1466,0.1471,0.1473,0.1496,0.148,0.1481,0.1482,0.1483,0.1534,0.1534,0,0,0,0,0,0,0.1403,0.1407,0.1437,0.1438,0.1418,0.1434,0.1436,0.1443,0.1457,0.1459,0.1448,0.1447,0.1469,0.1472,0.1474,0.1496,0.1482,0.1483,0.1484,0.1533,0.1534,0.1534,0,0,0,0,0,0,0.1402,0.1405,0.1436,0.1423,0.1426,0.1435,0.1443,0.1444,0.1449,0.1459,0.1461,0.1452,0.1469,0.1472,0.1489,0.1497,0.1484,0.1485,0.1533,0.1533,0.1534,0.154,0,0,0,0,0,0,0.1401,0.1405,0.1411,0.1423,0.1427,0.145,0.1443,0.1445,0.1452,0.1451,0.1463,0.1465,0.1469,0.1487,0.149,0.1499,0.1486,0.1532,0.1533,0.1534,0.1539,0.1541,0.1542,0,0,0,0,0,0.1399,0.1412,0.1412,0.1415,0.1435,0.145,0.1453,0.1457,0.1452,0.1459,0.1465,0.1465,0.1495,0.1488,0.1492,0.1501,0.1531,0.1533,0.1534,0.1538,0.154,0.1542,0,0,0,0,0,0,0.1402,0.1414,0.1413,0.143,0.1439,0.145,0.1459,0.1459,0.1469,0.1469,0.1473,0.1476,0.1493,0.1498,0.1491,0.1519,0.1513,0.1515,0.1515,0.1517,0.1519,0.1517,0.1487,0,0,0,0,0,0.1404,0.1415,0.1425,0.1439,0.1443,0.145,0.1457,0.1459,0.1469,0.1473,0.148,0.149,0.1502,0.151,0.1521,0.1539,0.1543,0.1548,0.1549,0.1551,0.1553,0.1564,0.1566,0.1538,0.1538,0.1538,0,0,0.141,0.1418,0.1424,0.144,0.1447,0.1459,0.1453,0.1466,0.1475,0.1475,0.1491,0.1497,0.1508,0.1526,0.1534,0.1531,0.1561,0.1552,0.1553,0.1554,0.1565,0.1568,0.157,0.1539,0.1539,0.1539,0,0,0.1426,0.1432,0.1445,0.1452,0.1463,0.1468,0.1471,0.1482,0.1486,0.1502,0.1502,0.1513,0.1533,0.1542,0.1548,0.1568,0.1568,0.1571,0.158,0.1591,0.1593,0.1595,0.1603,0.1606,0.1573,0.1573,0.1573,0,0.1431,0.1448,0.1452,0.1464,0.1472,0.1472,0.1485,0.1492,0.1506,0.1512,0.1508,0.1534,0.1541,0.1562,0.1566,0.1571,0.1576,0.157,0.1593,0.1595,0.1597,0.1604,0.1607,0.1574,0.1574,0.1574,0.1574,0,0.1455,0.1467,0.1476,0.149,0.1498,0.1511,0.1517,0.1525,0.1526,0.1531,0.1548,0.1557,0.1571,0.1576,0.1577,0.1596,0.1594,0.1592,0.1586,0.16,0.1607,0.161,0.1574,0.1574,0.1574,0.1574,0,0,0.1474,0.1489,0.1493,0.1499,0.1511,0.1521,0.1534,0.1547,0.1554,0.1564,0.1576,0.1593,0.1591,0.1599,0.1601,0.1611,0.1627,0.1607,0.1607,0.1611,0.1649,0.1652,0.1655,0.1626,0.1627,0.1627,0.1649,0,0.1492,0.1515,0.1518,0.1539,0.1551,0.1551,0.1563,0.1572,0.1577,0.1588,0.1594,0.1606,0.1602,0.1607,0.1616,0.1623,0.1635,0.1621,0.1638,0.1639,0.1637,0.1659,0.1662,0.1681,0.1651,0.1652,0.1652,0,0.1516,0.1526,0.1548,0.1559,0.1564,0.1575,0.1588,0.1598,0.1608,0.1611,0.162,0.1622,0.1636,0.1629,0.1649,0.164,0.1647,0.1652,0.1653,0.1655,0.1647,0.1663,0.1687,0.1691,0.1657,0.1656,0.1656,0,0.1529,0.1548,0.1564,0.1569,0.1582,0.159,0.1596,0.1606,0.1614,0.1625,0.163,0.1643,0.165,0.166,0.1666,0.1659,0.1686,0.1679,0.169,0.169,0.1696,0.1696,0.1723,0.1699,0.1699,0.1699,0.1699,0,0.1549,0.1563,0.157,0.158,0.1595,0.1599,0.1615,0.162,0.1629,0.1641,0.1642,0.1653,0.1658,0.167,0.1674,0.1691,0.1694,0.1698,0.1699,0.1698,0.1698,0.1704,0.1703,0.17,0.17,0.1699,0.1699,0,0.1566,0.1571,0.1589,0.16,0.1603,0.1614,0.1624,0.1634,0.1639,0.1653,0.1657,0.1665,0.1679,0.1685,0.1702,0.1705,0.1725,0.1724,0.1721,0.1722,0.1733,0.1732,0.1766,0.1771,0.1742,0.1743,0.1743,0,0.1579,0.159,0.1602,0.1609,0.1615,0.1628,0.1636,0.164,0.1649,0.1662,0.167,0.1684,0.1696,0.1718,0.1726,0.174,0.174,0.1751,0.1742,0.1742,0.1742,0.1741,0.1743,0.1753,0.1753,0.1753,0.1754,0,0.1602,0.1604,0.1616,0.1628,0.1638,0.1648,0.1658,0.1664,0.167,0.168,0.1694,0.1703,0.1721,0.1735,0.1749,0.1756,0.1756,0.1756,0.176,0.176,0.1758,0.176,0.1727,0.1756,0.1755,0.1755,0.1755,0.1755,0.1618,0.1628,0.1638,0.1651,0.1659,0.1668,0.1678,0.1685,0.1696,0.1711,0.1713,0.1729,0.174,0.1758,0.1766,0.1778,0.1776,0.178,0.1782,0.1783,0.1784,0.1755,0.1781,0.1781,0.1781,0.1781,0.1781,0,0.1642,0.1649,0.166,0.1674,0.1685,0.1683,0.1695,0.1703,0.1717,0.1727,0.1738,0.1755,0.1769,0.1778,0.1792,0.1801,0.1801,0.1804,0.1804,0.1806,0.1785,0.1782,0.1804,0.1804,0.1804,0.1804,0.1804,0.1804,0.1656,0.1672,0.1676,0.1697,0.1703,0.1718,0.1725,0.1734,0.1742,0.1761,0.1772,0.1778,0.1788,0.1803,0.1816,0.1818,0.1824,0.1827,0.1829,0.181,0.1808,0.1805,0.1802,0.1828,0.1828,0.1849,0.1849,0.1849]}]]